Location: Torrington
(42.0650°N, 104.1810°W)
Time: 03:45:42
(UTC-06:00)

Amateur Radio Satellites - All Passes

Search period start: 26 April 2015 03:15
Search period end: 27 April 2015 03:15
Location: Torrington, 42.0650°N, 104.1810°W

Satellite Date Start Highest point End Downlink Frequencies (MHz)
Time Altitude Azimuth
KKS-1 26 Apr 03:29:24 03:33:36 41° 262° (W) 03:37:49 437.445
JAS-2 26 Apr 03:40:45 03:44:01 15° 84° (E) 03:47:25 435.910
AIST 2 26 Apr 03:44:17 03:48:27 56° 119° (ESE) 03:52:40 435.215
Oscar 19 26 Apr 03:47:07 03:51:13 23° 295° (WNW) 03:55:11 437.125/150
CUSAT 1 26 Apr 03:51:43 03:59:05 53° 75° (ENE) 04:07:13 437.405
MOZHAYETS 4 26 Apr 03:59:20 04:03:14 28° 69° (ENE) 04:07:13
HORYU 2 26 Apr 04:05:01 04:09:03 32° 96° (E) 04:13:07 437.375
BEESAT 3 26 Apr 04:18:48 04:22:00 21° 316° (NW) 04:25:11 437.485
BEESAT 2 26 Apr 04:20:28 04:23:53 24° 315° (NW) 04:27:15 435.950
ITAMSAT 1 26 Apr 04:22:13 04:26:51 34° 292° (WNW) 04:31:26 435.822/435.867
STARS 26 Apr 04:24:30 04:27:32 18° 269° (W) 04:30:27 437.465
DANDE 26 Apr 04:33:33 04:41:02 78° 79° (E) 04:49:37 436.750
GONETS M04 26 Apr 04:47:08 04:55:49 60° 268° (W) 05:04:22
M-CUBED/EXP-1 PRIME 26 Apr 04:51:38 04:54:43 18° 59° (ENE) 04:57:58 437.505
Gurwin Techsat 1B 26 Apr 04:55:08 04:59:07 21° 296° (WNW) 05:02:57 435.225
AO-7 26 Apr 04:59:20 05:07:36 64° 103° (ESE) 05:15:52 29.400- 29.500
Cosmos 2499 26 Apr 05:14:57 05:22:13 41° 71° (ENE) 05:29:03 435.465 / 435.565
JAS-2 26 Apr 05:23:47 05:30:12 76° 286° (WNW) 05:35:50 435.910
AIST 2 26 Apr 05:24:16 05:27:24 19° 318° (NW) 05:30:29 435.215
AUBIESAT-1 26 Apr 05:32:06 05:36:27 36° 65° (ENE) 05:40:49 437.475
CUSAT 1 26 Apr 05:34:46 05:41:42 37° 269° (W) 05:49:01 437.405
MOZHAYETS 4 26 Apr 05:36:17 05:40:24 30° 265° (W) 05:44:29
CUBESAT XI-V 26 Apr 05:37:26 05:41:04 24° 68° (ENE) 05:44:47 437.345
HORYU 2 26 Apr 05:41:53 05:45:35 25° 293° (WNW) 05:49:12 437.375
STRAND 1 26 Apr 05:55:44 05:59:25 21° 64° (ENE) 06:03:14 437.568
PRISM 26 Apr 05:57:40 06:00:54 23° 68° (ENE) 06:04:12 437.425
DANDE 26 Apr 06:18:01 06:23:54 24° 273° (W) 06:30:00 436.750
M-CUBED/EXP-1 PRIME 26 Apr 06:24:21 06:29:07 64° 254° (WSW) 06:33:57 437.505
O/OREOS (USA 219) 26 Apr 06:46:46 06:47:58 11° 47° (NE) 06:49:21 437.305
AO-7 26 Apr 06:52:51 06:59:58 32° 302° (WNW) 07:06:56 29.400- 29.500
AUBIESAT-1 26 Apr 07:07:07 07:11:14 28° 261° (W) 07:15:18 437.475
Cosmos 2499 26 Apr 07:08:17 07:15:20 38° 273° (W) 07:21:50 435.465 / 435.565
JAS-2 26 Apr 07:11:17 07:14:07 13° 306° (NW) 07:16:33 435.910
CUBESAT XI-V 26 Apr 07:14:05 07:18:22 36° 264° (W) 07:22:36 437.345
PCSat 26 Apr 07:14:49 07:17:45 15° 105° (ESE) 07:20:57 145.827
CUTE-I 26 Apr 07:15:06 07:20:25 68° 102° (ESE) 07:25:44 437.470
Cubesat XI-IV 26 Apr 07:24:54 07:30:16 84° 103° (ESE) 07:35:36 437.490
PRISM 26 Apr 07:32:30 07:36:14 31° 263° (W) 07:39:55 437.425
STRAND 1 26 Apr 07:33:21 07:38:19 50° 260° (W) 07:43:17 437.568
HO-68 26 Apr 08:05:22 08:07:48 12° 84° (E) 08:10:47 435.675
O/OREOS (USA 219) 26 Apr 08:23:40 08:28:11 88° 64° (ENE) 08:32:40 437.305
Cosmos 2491 26 Apr 08:28:10 08:34:05 20° 60° (ENE) 08:40:25 435.465 / 435.565
GOMX 1 26 Apr 08:28:21 08:32:05 20° 91° (E) 08:36:05 467.674
BRITE-PL 26 Apr 08:43:10 08:48:00 41° 97° (E) 08:53:10 437.365/2234.400
PCSat 26 Apr 08:55:12 09:00:37 74° 301° (WNW) 09:06:04 145.827
CUTE-I 26 Apr 08:56:34 09:00:01 17° 298° (WNW) 09:03:17 437.470
DOVE 4 26 Apr 09:01:27 09:05:49 28° 94° (E) 09:10:22 437.250
SEEDS 26 Apr 09:03:57 09:07:13 22° 93° (E) 09:10:33 437.485
Cubesat XI-IV 26 Apr 09:06:55 09:09:45 14° 300° (WNW) 09:12:20 437.490
CANX-2 26 Apr 09:12:59 09:16:58 36° 97° (E) 09:20:55 2200.000
AAUSAT CUBESAT 2 26 Apr 09:19:29 09:22:46 22° 93° (E) 09:26:06 437.432
CUTE 1.7 + AOD 2 26 Apr 09:21:58 09:26:02 41° 98° (E) 09:30:04 437.475
TIGRISAT 26 Apr 09:34:36 09:37:28 17° 64° (ENE) 09:40:33 435.000
YUBILEINY 26 Apr 09:35:54 09:41:35 20° 80° (E) 09:47:42 435.215
CUBEBUG 2 26 Apr 09:36:50 09:39:45 16° 89° (E) 09:42:51 437.445
UNISAT 6 26 Apr 09:38:52 09:42:03 20° 65° (ENE) 09:45:25 437.425
CINEMA 3 26 Apr 09:40:55 09:45:27 34° 95° (E) 09:50:03 145.822/145.860
HO-68 26 Apr 09:49:41 09:56:54 76° 104° (ESE) 10:04:04 435.675
UWE-3 26 Apr 10:00:58 10:04:40 23° 92° (E) 10:08:27 435.000/436.395/437.385
POLYITAN 1 26 Apr 10:02:04 10:04:30 16° 65° (ENE) 10:07:06 437.675
DUCHIFAT 1 26 Apr 10:02:23 10:04:40 15° 65° (ENE) 10:07:08 145.980
GOMX 1 26 Apr 10:05:28 10:10:29 53° 287° (WNW) 10:15:42 467.674
FUNcube-1 26 Apr 10:08:50 10:12:19 22° 92° (E) 10:15:55 145.935
COMPASS 1 26 Apr 10:12:18 10:16:32 78° 284° (WNW) 10:20:42 437.405
UKube-1 26 Apr 10:14:25 10:16:12 13° 89° (E) 10:18:13 .
QB50P1 26 Apr 10:19:14 10:22:30 23° 68° (ENE) 10:25:52 145.935-145.965
ANTELSAT 26 Apr 10:19:33 10:23:54 48° 73° (ENE) 10:28:25 437.575/2403.000
BRITE-PL 26 Apr 10:22:06 10:26:22 27° 291° (WNW) 10:30:46 437.365/2234.400
Cosmos 2491 26 Apr 10:23:32 10:32:25 90° 289° (WNW) 10:41:17 435.465 / 435.565
HUMSAT D 26 Apr 10:24:44 10:27:08 15° 89° (E) 10:29:41 437.325/437.525
DELFI C3 26 Apr 10:25:17 10:29:07 41° 98° (E) 10:32:57 145.870
Oscar 11 26 Apr 10:31:38 10:35:59 67° 101° (E) 10:40:17 145.826/435.025
ZACube-1 26 Apr 10:33:55 10:38:16 40° 97° (E) 10:42:36 437.345
DOVE 4 26 Apr 10:38:55 10:43:38 37° 289° (WNW) 10:48:26 437.250
SEEDS 26 Apr 10:39:18 10:43:06 32° 290° (WNW) 10:46:51 437.485
PCSat 26 Apr 10:41:57 10:45:04 15° 323° (NW) 10:48:01 145.827
VELOX 1 26 Apr 10:42:11 10:44:05 13° 89° (E) 10:46:13 145.980
QB50P2 26 Apr 10:44:46 10:48:45 43° 72° (ENE) 10:52:48 145.880/145.840
CANX-2 26 Apr 10:49:28 10:52:41 20° 293° (WNW) 10:55:46 2200.000
AAUSAT CUBESAT 2 26 Apr 10:54:44 10:58:27 30° 290° (WNW) 11:02:05 437.432
BEESAT 3 26 Apr 10:58:22 11:02:05 32° 48° (NE) 11:05:47 437.485
CUTE 1.7 + AOD 2 26 Apr 10:58:41 11:01:40 18° 294° (WNW) 11:04:31 437.475
SO-50 26 Apr 10:58:47 11:02:29 25° 113° (ESE) 11:06:25 436.795
AISAT 26 Apr 10:59:14 11:02:32 21° 93° (E) 11:05:58 437.250
BEESAT 2 26 Apr 11:00:45 11:04:23 29° 47° (NE) 11:08:01 435.950
NANOSAT C BR1 26 Apr 11:02:11 11:06:21 66° 75° (ENE) 11:10:33 145.865
POPSAT HIP 1 26 Apr 11:05:42 11:09:53 73° 75° (ENE) 11:14:08 437.405
DX 1 26 Apr 11:06:29 11:10:45 50° 100° (E) 11:15:00 434.975-435.025
50 SAT 26 Apr 11:08:50 11:12:15 26° 95° (E) 11:15:41 437.505
TIGRISAT 26 Apr 11:09:25 11:13:49 52° 261° (W) 11:18:22 435.000
CUBEBUG 2 26 Apr 11:12:09 11:16:50 55° 287° (WNW) 11:21:28 437.445
UNISAT 6 26 Apr 11:14:09 11:18:31 45° 262° (W) 11:22:59 437.425
AIST 1 26 Apr 11:15:43 11:19:13 24° 73° (ENE) 11:22:47
CINEMA 3 26 Apr 11:18:14 11:22:32 29° 292° (WNW) 11:26:48 145.822/145.860
BUGSAT 1 26 Apr 11:26:33 11:30:34 87° 78° (ENE) 11:34:37 437.445
YUBILEINY 26 Apr 11:28:35 11:37:27 84° 278° (W) 11:46:20 435.215
POLYITAN 1 26 Apr 11:35:58 11:40:04 49° 261° (W) 11:44:13 437.675
DUCHIFAT 1 26 Apr 11:36:02 11:40:07 51° 260° (W) 11:44:15 145.980
UWE-3 26 Apr 11:36:59 11:41:19 37° 289° (WNW) 11:45:36 435.000/436.395/437.385
HO-68 26 Apr 11:38:33 11:44:01 23° 302° (WNW) 11:49:14 435.675
ESTCUBE 1 26 Apr 11:40:19 11:44:16 30° 96° (E) 11:48:15 437.505/2401.250
FUNcube-1 26 Apr 11:44:31 11:48:48 38° 289° (WNW) 11:53:01 145.935
Cosmos 2504 26 Apr 11:45:43 11:48:11 12° 75° (ENE) 11:51:21 435.465 / 435.565
UKube-1 26 Apr 11:48:32 11:52:49 59° 287° (WNW) 11:57:04 .
QB50P1 26 Apr 11:54:28 11:58:14 31° 264° (W) 12:02:01 145.935-145.965
ANTELSAT 26 Apr 11:57:59 12:01:02 17° 270° (W) 12:03:59 437.575/2403.000
HUMSAT D 26 Apr 11:59:01 12:03:14 50° 287° (WNW) 12:07:25 437.325/437.525
DELFI C3 26 Apr 12:01:22 12:03:58 16° 294° (WNW) 12:06:27 145.870
ISS 26 Apr 12:02:31 12:05:44 60° 141° (SE) 12:08:57 145.825
SPROUT 26 Apr 12:03:07 12:04:53 13° 88° (E) 12:06:53 437.525
AIST 2 26 Apr 12:05:45 12:09:49 42° 51° (NE) 12:13:49 435.215
Oscar 11 26 Apr 12:09:44 12:11:40 12° 297° (WNW) 12:13:24 145.826/435.025
ZACube-1 26 Apr 12:10:50 12:14:24 22° 293° (WNW) 12:17:49 437.345
VELOX 1 26 Apr 12:16:44 12:21:07 61° 286° (WNW) 12:25:30 145.980
CUBEBUG 1 26 Apr 12:19:43 12:24:05 72° 102° (ESE) 12:28:27 437.445
QB50P2 26 Apr 12:22:10 12:24:55 16° 269° (W) 12:27:32 145.880/145.840
Cosmos 2491 26 Apr 12:22:30 12:28:13 18° 281° (W) 12:33:26 435.465 / 435.565
AISAT 26 Apr 12:35:09 12:39:18 38° 289° (WNW) 12:43:24 437.250
BEESAT 3 26 Apr 12:36:35 12:39:59 25° 246° (WSW) 12:43:17 437.485
SO-50 26 Apr 12:38:22 12:42:50 42° 311° (NW) 12:47:26 436.795
BEESAT 2 26 Apr 12:38:53 12:42:29 28° 245° (WSW) 12:45:57 435.950
NANOSAT C BR1 26 Apr 12:41:46 12:42:44 10° 272° (W) 12:43:27 145.865
50 SAT 26 Apr 12:43:38 12:47:00 25° 291° (WNW) 12:50:15 437.505
DX 1 26 Apr 12:43:52 12:46:38 16° 296° (WNW) 12:49:15 434.975-435.025
AIST 1 26 Apr 12:53:15 12:56:52 27° 270° (W) 13:00:25
Gurwin Techsat 1B 26 Apr 12:59:47 13:01:47 12° 59° (ENE) 13:04:04 435.225
TISAT 1 26 Apr 13:03:27 13:07:33 44° 99° (E) 13:11:38 437.305
ESTCUBE 1 26 Apr 13:17:17 13:21:04 26° 292° (WNW) 13:24:45 437.505/2401.250
Oscar 19 26 Apr 13:24:16 13:29:23 70° 74° (ENE) 13:34:34 437.125/150
YUBILEINY 26 Apr 13:30:00 13:35:55 18° 302° (WNW) 13:41:25 435.215
Cosmos 2504 26 Apr 13:31:28 13:40:10 65° 93° (E) 13:48:49 435.465 / 435.565
ITUPSAT 1 26 Apr 13:33:38 13:36:18 15° 89° (E) 13:39:11 437.325
SPROUT 26 Apr 13:37:09 13:41:26 59° 286° (WNW) 13:45:41 437.525
ISS 26 Apr 13:39:31 13:42:18 25° 340° (NNW) 13:45:04 145.825
AIST 2 26 Apr 13:45:02 13:48:08 20° 248° (WSW) 13:51:06 435.215
JAS-2 26 Apr 13:55:04 13:57:24 12° 53° (NE) 14:00:08 435.910
CUBEBUG 1 26 Apr 13:58:13 13:59:56 12° 297° (WNW) 14:01:26 437.445
ITAMSAT 1 26 Apr 14:01:05 14:06:02 49° 71° (ENE) 14:11:02 435.822/435.867
BEESAT 26 Apr 14:02:47 14:06:58 31° 96° (E) 14:11:11 436.000
RS-15 26 Apr 14:04:39 14:14:53 51° 112° (ESE) 14:25:25 29.354- 29.394
SWISSCUBE 26 Apr 14:05:20 14:09:41 35° 97° (E) 14:14:03 437.505
AO-7 26 Apr 14:09:29 14:15:01 21° 52° (NE) 14:20:52 29.400- 29.500
Gurwin Techsat 1B 26 Apr 14:35:45 14:41:03 86° 78° (ENE) 14:46:25 435.225
TISAT 1 26 Apr 14:40:11 14:43:01 17° 294° (WNW) 14:45:43 437.305
HORYU 2 26 Apr 15:03:44 15:07:43 32° 69° (ENE) 15:11:46 437.375
Oscar 19 26 Apr 15:06:31 15:09:22 14° 272° (W) 15:11:58 437.125/150
ITUPSAT 1 26 Apr 15:09:58 15:14:39 57° 287° (WNW) 15:19:18 437.325
ISS 26 Apr 15:17:27 15:19:29 15° 360° (N) 15:21:30 145.825
KKS-1 26 Apr 15:19:57 15:24:04 35° 97° (E) 15:28:14 437.445
Cosmos 2504 26 Apr 15:26:35 15:34:15 30° 293° (WNW) 15:41:36 435.465 / 435.565
JAS-2 26 Apr 15:33:33 15:41:07 55° 70° (ENE) 15:48:27 435.910
BEESAT 26 Apr 15:40:39 15:44:46 29° 292° (WNW) 15:48:48 436.000
ITAMSAT 1 26 Apr 15:41:57 15:45:51 21° 268° (W) 15:49:38 435.822/435.867
SWISSCUBE 26 Apr 15:43:29 15:47:25 25° 293° (WNW) 15:51:15 437.505
GONETS M04 26 Apr 15:52:45 16:00:16 35° 86° (E) 16:08:02
AO-7 26 Apr 15:58:31 16:06:48 85° 71° (ENE) 16:15:09 29.400- 29.500
PCSat 26 Apr 16:00:22 16:03:59 18° 40° (NE) 16:07:42 145.827
STARS 26 Apr 16:12:00 16:16:29 82° 103° (ESE) 16:20:56 437.465
RS-15 26 Apr 16:16:48 16:27:22 51° 316° (NW) 16:38:11 29.354- 29.394
Gurwin Techsat 1B 26 Apr 16:19:55 16:21:52 12° 274° (W) 16:23:28 435.225
VERMONT LUNAR 26 Apr 16:30:50 16:33:42 26° 157° (SSE) 16:36:35 437.305
HORYU 2 26 Apr 16:40:42 16:44:25 24° 266° (W) 16:48:05 437.375
ISS 26 Apr 16:53:53 16:56:39 25° 20° (NNE) 16:59:26 145.825
KKS-1 26 Apr 16:56:59 17:00:33 23° 293° (WNW) 17:04:02 437.445
CUTE-I 26 Apr 17:00:12 17:03:18 16° 61° (ENE) 17:06:36 437.470
CUSAT 1 26 Apr 17:02:02 17:05:26 35° 90° (E) 17:09:53 437.405
PHONESAT 2.4 26 Apr 17:09:27 17:12:11 21° 153° (SSE) 17:14:57 2401.200-2431.200
Cubesat XI-IV 26 Apr 17:09:28 17:13:09 20° 63° (ENE) 17:16:59 437.490
JAS-2 26 Apr 17:19:21 17:26:23 34° 267° (W) 17:33:06 435.910
MOZHAYETS 4 26 Apr 17:30:20 17:34:54 61° 100° (E) 17:39:24
PCSat 26 Apr 17:42:43 17:48:11 86° 244° (WSW) 17:53:36 145.827
DANDE 26 Apr 17:48:14 17:51:38 87° 100° (E) 17:56:13 436.750
GONETS M04 26 Apr 17:48:19 17:56:51 53° 285° (WNW) 18:05:26
Cosmos 2499 26 Apr 17:50:52 17:58:33 36° 87° (E) 18:06:12 435.465 / 435.565
STARS 26 Apr 17:51:03 17:52:21 11° 299° (WNW) 17:53:24 437.465
AO-7 26 Apr 17:54:49 18:00:44 20° 271° (W) 18:06:14 29.400- 29.500
VERMONT LUNAR 26 Apr 18:07:32 18:10:53 62° 172° (S) 18:14:14 437.305
ISS 26 Apr 18:30:00 18:33:14 61° 218° (SW) 18:36:26 145.825
RS-15 26 Apr 18:34:49 18:43:19 24° 348° (NNW) 18:51:56 29.354- 29.394
HO-68 26 Apr 18:36:27 18:38:49 12° 50° (NE) 18:41:35 435.675
CUTE-I 26 Apr 18:37:32 18:42:51 72° 257° (WSW) 18:48:11 437.470
CUSAT 1 26 Apr 18:45:44 18:48:37 18° 300° (WNW) 18:51:55 437.405
PHONESAT 2.4 26 Apr 18:46:32 18:50:03 56° 169° (S) 18:53:35 2401.200-2431.200
Cubesat XI-IV 26 Apr 18:47:36 18:52:51 58° 259° (W) 18:58:07 437.490
AUBIESAT-1 26 Apr 18:48:30 18:51:36 21° 97° (E) 18:54:35 437.475
MOZHAYETS 4 26 Apr 19:09:03 19:11:41 15° 296° (WNW) 19:14:07
CUBESAT XI-V 26 Apr 19:09:52 19:14:23 53° 100° (E) 19:18:54 437.345
PRISM 26 Apr 19:14:14 19:17:55 32° 97° (E) 19:21:38 437.425
SO-50 26 Apr 19:29:02 19:33:23 30° 45° (NE) 19:37:44 436.795
PCSat 26 Apr 19:29:11 19:30:53 11° 257° (WSW) 19:32:14 145.827
GOMX 1 26 Apr 19:38:12 19:41:01 18° 65° (ENE) 19:44:06 467.674
M-CUBED/EXP-1 PRIME 26 Apr 19:41:07 19:45:21 80° 290° (WNW) 19:49:11 437.505
Cosmos 2499 26 Apr 19:42:49 19:51:29 53° 285° (WNW) 19:59:50 435.465 / 435.565
STRAND 1 26 Apr 19:43:15 19:48:14 52° 100° (E) 19:53:13 437.568
VERMONT LUNAR 26 Apr 19:44:54 19:48:15 58° 189° (S) 19:51:34 437.305
BRITE-PL 26 Apr 19:55:27 19:59:20 41° 72° (ENE) 20:03:25 437.365/2234.400
SEEDS 26 Apr 19:57:05 19:59:52 18° 66° (ENE) 20:02:49 437.485
CANX-2 26 Apr 20:06:30 20:10:10 29° 70° (ENE) 20:13:56 2200.000
DOVE 4 26 Apr 20:08:21 20:11:49 25° 67° (ENE) 20:15:31 437.250
AAUSAT CUBESAT 2 26 Apr 20:11:24 20:14:09 18° 67° (ENE) 20:17:03 437.432
CUTE 1.7 + AOD 2 26 Apr 20:15:18 20:19:07 32° 70° (ENE) 20:22:59 437.475
HO-68 26 Apr 20:18:14 20:25:14 59° 69° (ENE) 20:32:18 435.675
AUBIESAT-1 26 Apr 20:22:48 20:26:31 31° 296° (WNW) 20:29:54 437.475
PHONESAT 2.4 26 Apr 20:24:37 20:28:10 66° 187° (S) 20:31:44 2401.200-2431.200
CUBEBUG 2 26 Apr 20:36:28 20:38:46 14° 63° (ENE) 20:41:17 437.445
CINEMA 3 26 Apr 20:43:32 20:47:19 30° 69° (ENE) 20:51:21 145.822/145.860
CUBESAT XI-V 26 Apr 20:48:28 20:51:27 17° 295° (WNW) 20:54:16 437.345
PRISM 26 Apr 20:50:06 20:53:14 21° 293° (WNW) 20:56:15 437.425
RS-15 26 Apr 20:51:31 21:00:44 28° 22° (NNE) 21:10:29 29.354- 29.394
UWE-3 26 Apr 20:59:07 21:02:15 20° 66° (ENE) 21:05:34 435.000/436.395/437.385
COMPASS 1 26 Apr 21:03:37 21:07:50 75° 76° (ENE) 21:12:06 437.405
FUNcube-1 26 Apr 21:05:38 21:08:35 18° 66° (ENE) 21:11:43 145.935
SO-50 26 Apr 21:09:24 21:14:04 41° 243° (WSW) 21:18:39 436.795
UKube-1 26 Apr 21:10:24 21:12:11 13° 63° (ENE) 21:14:11 .
DELFI C3 26 Apr 21:13:26 21:16:54 28° 70° (ENE) 21:20:26 145.870
GOMX 1 26 Apr 21:14:54 21:18:54 41° 263° (W) 21:23:04 467.674
HUMSAT D 26 Apr 21:18:16 21:19:49 12° 63° (ENE) 21:21:35 437.325/437.525
VERMONT LUNAR 26 Apr 21:22:40 21:25:23 22° 205° (SSW) 21:28:04 437.305
STRAND 1 26 Apr 21:23:22 21:27:06 20° 296° (WNW) 21:30:42 437.568
Oscar 11 26 Apr 21:26:36 21:30:51 54° 74° (ENE) 21:35:08 145.826/435.025
ZACube-1 26 Apr 21:30:27 21:34:20 33° 70° (ENE) 21:38:22 437.345
SEEDS 26 Apr 21:31:18 21:35:23 43° 262° (W) 21:39:30 437.485
Cosmos 2491 26 Apr 21:31:35 21:37:26 21° 80° (E) 21:43:43 435.465 / 435.565
BRITE-PL 26 Apr 21:35:31 21:38:13 16° 271° (W) 21:40:50 437.365/2234.400
YUBILEINY 26 Apr 21:38:32 21:46:58 50° 74° (ENE) 21:55:23 435.215
VELOX 1 26 Apr 21:40:51 21:42:53 13° 63° (ENE) 21:45:05 145.980
CANX-2 26 Apr 21:42:29 21:46:07 25° 266° (W) 21:49:41 2200.000
Cosmos 2499 26 Apr 21:45:17 21:47:05 10° 309° (NW) 21:48:11 435.465 / 435.565
AAUSAT CUBESAT 2 26 Apr 21:45:28 21:49:30 42° 262° (W) 21:53:32 437.432
DOVE 4 26 Apr 21:45:45 21:49:31 30° 266° (W) 21:53:26 437.250
CUTE 1.7 + AOD 2 26 Apr 21:51:39 21:55:06 23° 267° (W) 21:58:29 437.475
50 SAT 26 Apr 21:55:19 21:57:57 18° 67° (ENE) 22:00:43 437.505
AISAT 26 Apr 21:57:56 22:01:07 20° 66° (ENE) 22:04:25 437.250
DX 1 26 Apr 22:02:28 22:06:35 46° 72° (ENE) 22:10:46 434.975-435.025
PHONESAT 2.4 26 Apr 22:02:58 22:06:10 30° 202° (SSW) 22:09:20 2401.200-2431.200
HO-68 26 Apr 22:07:24 22:13:26 27° 267° (W) 22:19:18 435.675
CUBEBUG 2 26 Apr 22:10:38 22:14:58 60° 260° (W) 22:19:28 437.445
ANTELSAT 26 Apr 22:14:15 22:14:52 10° 86° (E) 22:15:47 437.575/2403.000
CINEMA 3 26 Apr 22:20:54 22:24:34 25° 267° (W) 22:28:19 145.822/145.860
UWE-3 26 Apr 22:34:22 22:38:30 41° 263° (W) 22:42:47 435.000/436.395/437.385
O/OREOS (USA 219) 26 Apr 22:36:00 22:40:35 85° 292° (WNW) 22:45:11 437.305
FUNcube-1 26 Apr 22:40:26 22:44:36 44° 262° (W) 22:48:53 145.935
ESTCUBE 1 26 Apr 22:40:30 22:44:24 30° 69° (ENE) 22:48:22 437.505/2401.250
UKube-1 26 Apr 22:43:34 22:47:51 66° 258° (WSW) 22:52:10 .
DELFI C3 26 Apr 22:48:41 22:52:02 23° 266° (W) 22:55:20 145.870
NANOSAT C BR1 26 Apr 22:49:32 22:50:14 10° 87° (E) 22:51:13 145.865
HUMSAT D 26 Apr 22:50:51 22:55:04 68° 259° (W) 22:59:22 437.325/437.525
POPSAT HIP 1 26 Apr 22:52:39 22:54:06 12° 88° (E) 22:55:48 437.405
SPROUT 26 Apr 22:58:59 23:00:10 11° 63° (ENE) 23:01:35 437.525
TIGRISAT 26 Apr 23:00:55 23:05:08 32° 95° (E) 23:09:20 435.000
RS-15 26 Apr 23:04:22 23:15:51 69° 51° (NE) 23:27:52 29.354- 29.394
Oscar 11 26 Apr 23:05:04 23:07:26 14° 271° (W) 23:09:36 145.826/435.025
UNISAT 6 26 Apr 23:05:43 23:10:06 37° 96° (E) 23:14:25 437.425
ZACube-1 26 Apr 23:07:14 23:10:47 23° 268° (W) 23:14:19 437.345
BUGSAT 1 26 Apr 23:10:09 23:11:47 12° 89° (E) 23:13:39 437.445
VELOX 1 26 Apr 23:14:36 23:18:58 64° 259° (W) 23:23:21 145.980
CUBEBUG 1 26 Apr 23:16:11 23:20:26 62° 74° (ENE) 23:24:43 437.445
DUCHIFAT 1 26 Apr 23:20:46 23:24:13 24° 94° (E) 23:27:44 145.980
POLYITAN 1 26 Apr 23:21:19 23:24:53 25° 94° (E) 23:28:32 437.675
Cosmos 2491 26 Apr 23:24:39 23:33:24 80° 279° (W) 23:42:14 435.465 / 435.565
Cosmos 2504 26 Apr 23:25:24 23:31:17 22° 62° (ENE) 23:37:08 435.465 / 435.565
50 SAT 26 Apr 23:28:45 23:32:30 38° 263° (W) 23:36:17 437.505
AISAT 26 Apr 23:33:22 23:37:29 39° 262° (W) 23:41:37 437.250
YUBILEINY 26 Apr 23:35:48 23:43:34 36° 274° (W) 23:51:09 435.215
QB50P1 26 Apr 23:38:44 23:42:46 38° 98° (E) 23:46:47 145.935-145.965
DX 1 26 Apr 23:40:23 23:43:09 16° 269° (W) 23:45:45 434.975-435.025
AIST 1 26 Apr 23:47:06 23:49:21 14° 87° (E) 23:51:47
ANTELSAT 26 Apr 23:47:37 23:52:22 81° 284° (WNW) 23:57:00 437.575/2403.000
TISAT 1 26 Apr 23:56:11 23:59:59 35° 71° (ENE) 00:03:50 437.305
QB50P2 27 Apr 00:05:09 00:09:28 79° 102° (ESE) 00:13:46 145.880/145.840
ESTCUBE 1 27 Apr 00:17:27 00:21:18 26° 266° (W) 00:25:03 437.505/2401.250
O/OREOS (USA 219) 27 Apr 00:19:27 00:20:50 11° 313° (NW) 00:22:00 437.305
NANOSAT C BR1 27 Apr 00:22:22 00:26:38 69° 285° (WNW) 00:30:54 145.865
POPSAT HIP 1 27 Apr 00:26:12 00:30:28 62° 286° (WNW) 00:34:43 437.405
SPROUT 27 Apr 00:31:28 00:35:43 74° 258° (WSW) 00:40:01 437.525
TIGRISAT 27 Apr 00:37:48 00:41:47 27° 292° (WNW) 00:45:39 435.000
ITUPSAT 1 27 Apr 00:40:52 00:44:15 20° 65° (ENE) 00:47:47 437.325
UNISAT 6 27 Apr 00:42:53 00:46:42 24° 293° (WNW) 00:50:21 437.425
BUGSAT 1 27 Apr 00:43:35 00:47:40 56° 286° (WNW) 00:51:47 437.445
CUBEBUG 1 27 Apr 00:55:37 00:57:18 12° 272° (W) 00:58:45 437.445
DUCHIFAT 1 27 Apr 00:56:17 01:00:04 30° 290° (WNW) 01:03:48 145.980
POLYITAN 1 27 Apr 00:57:02 01:00:49 29° 291° (WNW) 01:04:31 437.675
BEESAT 27 Apr 01:09:38 01:14:01 38° 70° (ENE) 01:18:26 436.000
SWISSCUBE 27 Apr 01:12:16 01:16:46 43° 71° (ENE) 01:21:18 437.505
QB50P1 27 Apr 01:15:14 01:18:24 20° 293° (WNW) 01:21:27 145.935-145.965
RS-15 27 Apr 01:17:28 01:27:47 37° 252° (WSW) 01:38:11 29.354- 29.394
Cosmos 2504 27 Apr 01:17:44 01:25:45 73° 265° (W) 01:33:09 435.465 / 435.565
AIST 1 27 Apr 01:22:30 01:26:39 46° 282° (WNW) 01:30:48
Cosmos 2491 27 Apr 01:26:29 01:32:02 17° 303° (WNW) 01:37:09 435.465 / 435.565
TISAT 1 27 Apr 01:32:48 01:35:55 19° 268° (W) 01:38:56 437.305
Oscar 19 27 Apr 01:36:04 01:40:11 24° 93° (E) 01:44:24 437.125/150
QB50P2 27 Apr 01:43:44 01:44:48 11° 298° (WNW) 01:45:39 145.880/145.840
GONETS M04 27 Apr 02:02:38 02:07:57 18° 57° (ENE) 02:13:43
ITAMSAT 1 27 Apr 02:14:38 02:17:45 17° 90° (E) 02:21:06 435.822/435.867
ITUPSAT 1 27 Apr 02:17:14 02:21:52 47° 261° (W) 02:26:29 437.325
KKS-1 27 Apr 02:18:37 02:22:36 34° 70° (ENE) 02:26:40 437.445
BEESAT 3 27 Apr 02:29:08 02:33:05 51° 119° (ESE) 02:37:06 437.485
BEESAT 2 27 Apr 02:32:29 02:36:24 45° 118° (ESE) 02:40:24 435.950
DANDE 27 Apr 02:43:46 02:48:25 18° 62° (ENE) 02:53:51 436.750
BEESAT 27 Apr 02:48:06 02:51:59 24° 267° (W) 02:55:47 436.000
SWISSCUBE 27 Apr 02:51:14 02:54:51 20° 268° (W) 02:58:21 437.505
Gurwin Techsat 1B 27 Apr 02:51:52 02:56:37 33° 95° (E) 03:01:24 435.225
